User: anonymous   Login
Location: Mentone
(34.5413°N, 85.5351°W)
Time: 21:14:02
(UTC-05:00)
Language:

Centaur AC-72 - Orbit

View from above orbital plane
View from above orbital plane
View from above satellite
View from above satellite

Ground track
Ground track

The orbit data is extracted from the following two-line orbital elements,

1 21907U 92013B   15188.19334612 -.00000039  00000-0  00000+0 0  9998
2 21907 018.8936 136.2699 6963710 098.3740 003.8666 02.25607590192237
Epoch (UTC): 07 July 2015 04:38:25
Eccentricity: 0.6963710
inclination: 18.8936°
perigee height: 1078 km
apogee height: 35278 km
right ascension of ascending node: 136.2699°
argument of perigee: 98.3740°
revolutions per day: 2.25607590
mean anomaly at epoch: 3.8666°
orbit number at epoch: 19223

The dashed part of the orbit path shows where the satellite is in the earth's shadow,  

DLR